Location: Borbetomagus
(49.6328°N, 8.3592°E)
Time: 05:46:42
(UTC+00:00)

Meteor 1-11 Rocket - Pass Details

Date: 19 May 2025
Orbit: 829 x 915 km, 81.2° (Epoch: 14 June)

Event Time Altitude Azimuth Distance (km) Brightness Sun altitude
Rises 20:59:47 0° 352° (N) 3,389 8.1 -13.5°
Reaches altitude 10° 21:02:23 10° 1° (N) 2,448 7.0 -13.7°
Maximum altitude 21:07:31 38° 69° (ENE) 1,254 4.5 -14.2°
Enters shadow 21:10:55 19° 126° (SE) 1,875 4.9 -14.5°
